Location: Brabourne
(51.1333°N, 1.0000°E)
Time: 06:20:06
(UTC+00:00)

NOSS 3-1 (A) - Pass Details

Date: 25 October 2021
Orbit: 721 x 1491 km, 63.4° (Epoch: 22 November)

Event Time Altitude Azimuth Distance (km) Brightness Sun altitude
Rises 18:53:30 0° 220° (SW) 3,226 6.7 -21.1°
Reaches altitude 10° 18:55:44 10° 220° (SW) 2,361 5.9 -21.4°
Maximum altitude 19:01:09 86° 134° (SE) 895 3.2 -22.3°
Enters shadow 19:04:32 29° 46° (NE) 1,683 4.4 -22.8°
